Location: Old Broadwell Mill Observatory
(33.8015°N, 85.8137°W)
Time: 08:44:33
(UTC-05:00)

Gurwin Techsat 1B - Visible Passes

Search period start: 26 May 2015 00:00
Search period end: 05 June 2015 00:00
Orbit: 812 x 815 km, 98.5° (Epoch: 25 May)

Date Brightness Start Highest point End Pass type
(mag) Time Alt. Az. Time Alt. Az. Time Alt. Az.
26 May 9.1 02:53:39 10° NNE 02:58:51 53° E 03:00:01 44° SE visible
26 May 10.3 04:35:05 10° NNW 04:38:26 16° WNW 04:41:14 11° W visible
27 May 9.9 02:31:20 10° NE 02:36:00 31° E 02:37:03 29° ESE visible
27 May 9.8 04:11:27 10° NNW 04:15:53 27° WNW 04:18:16 19° WSW visible
28 May 10.6 02:09:29 10° NE 02:13:04 19° E 02:14:04 18° ESE visible
28 May 9.1 03:48:15 10° N 03:53:17 44° WNW 03:55:17 30° WSW visible
29 May 11.1 01:49:17 10° E 01:50:00 10° E 01:51:05 10° E visible
29 May 8.5 03:25:19 10° N 03:30:37 74° WNW 03:32:18 44° SSW visible
30 May 8.8 03:02:36 10° NNE 03:07:55 67° E 03:09:19 47° SSE visible
30 May 10.6 04:44:48 10° NW 04:47:23 13° WNW 04:49:41 10° W visible
31 May 9.6 02:40:10 10° NNE 02:45:06 39° E 02:46:20 34° SE visible
31 May 10.0 04:20:48 10° NNW 04:24:52 22° WNW 04:27:33 15° WSW visible
01 Jun 10.3 02:18:05 10° NE 02:22:12 23° E 02:23:21 22° ESE visible
01 Jun 9.4 03:57:27 10° N 04:02:17 36° WNW 04:04:34 24° WSW visible
02 Jun 10.9 01:56:47 10° ENE 01:59:12 14° E 02:00:22 13° ESE visible
02 Jun 8.7 03:34:24 10° N 03:39:39 60° WNW 03:41:34 37° SW visible
03 Jun 8.6 03:11:37 10° NNE 03:16:57 83° E 03:18:35 47° S visible
03 Jun 10.7 04:55:06 10° NW 04:56:20 11° WNW 04:57:12 10° WNW visible
04 Jun 9.3 02:49:03 10° NNE 02:54:11 49° E 02:55:35 39° SE visible
04 Jun 10.3 04:30:14 10° NNW 04:33:50 18° WNW 04:36:48 11° WSW visible
